Location: Bishop�s Knoyle
(51.0728°N, 2.1714°W)
Time: 07:11:11
(UTC+00:00)

OPS 6432 - Pass Details

Date: 18 September 2020
Orbit: 369 x 1718 km, 63.3° (Epoch: 14 September)

Event Time Altitude Azimuth Distance (km) Brightness Sun altitude
Rises 18:55:28 0° 315° (NW) 2,245 9.0 -7.1°
Reaches altitude 10° 18:57:21 10° 314° (NW) 1,428 7.9 -7.4°
Maximum altitude 19:00:23 83° 229° (SW) 441 4.4 -7.9°
Drops below altitude 10° 19:04:06 10° 140° (SE) 1,738 6.9 -8.4°
Enters shadow 19:05:00 - 139° (SE) 2,120 7.3 -8.6°
